Weather History for KPKD - February, 2013

Change the Weather History Date:

Monday, February 18, 2013

  Actual Average Record
Temperature  
Mean Temperature 13 °F -  
Max Temperature 26 °F 27 °F 51 °F (1981)
Min Temperature 0 °F 7 °F -28 °F (1966)
Degree Days  
Heating Degree Days 52    
Moisture  
Dew Point 8 °F    
Average Humidity 77    
Maximum Humidity 88    
Minimum Humidity 67    
Precipitation  
Precipitation 0.00 in - - ()
Sea Level Pressure  
Sea Level Pressure 29.68 in    
Wind  
Wind Speed 14 mph (NW)    
Max Wind Speed 26 mph    
Max Gust Speed 32 mph    
Visibility 7 miles    
Events Snow    
Averages and records for this station are not official NWS values.
T = Trace of Precipitation, MM = Missing Value Source: NWS Daily Summary

Daily Weather History Graph

Daily Weather History Graph

Search for Another Location

Airport or City:

Trip Planner

Search our weather history database for the weather conditions in past years. The results will help you decide how hot, cold, wet, or windy it might be!

Date:

Astronomy

Feb. 18, 2013 Rise Set
Actual Time 7:19 AM CST 5:49 PM CST
Civil Twilight 6:48 AM CST 6:20 PM CST
Nautical Twilight 6:12 AM CST 6:56 PM CST
Astronomical Twilight 5:37 AM CST 7:31 PM CST
Moon 11:25 AM CST (2/18) 2:10 AM CST (2/18)
Length of Visible Light 11h 32m
Length of Day
10h 30m
First Quarter, 58% of the Moon is Illuminated
Feb 18
First Quarter
Feb 25
Full
Mar 4
Last Quarter
Mar 11
New
Mar 19
First Quarter

Hourly Weather History & Observations

Time (CST) Temp. Windchill Dew Point Humidity Pressure Visibility Wind Dir Wind Speed Gust Speed Precip Events Conditions
12:53 AM 26.1 °F 15.6 °F 21.0 °F 81% 29.55 in 10.0 mi SSE 11.5 mph - N/A   Overcast
1:53 AM 26.1 °F 16.8 °F 21.0 °F 81% 29.55 in 10.0 mi South 9.2 mph - N/A   Overcast
2:53 AM 26.1 °F 18.4 °F 21.0 °F 81% 29.52 in 10.0 mi South 6.9 mph - N/A   Overcast
3:53 AM 25.0 °F 16.3 °F 21.0 °F 85% 29.51 in 9.0 mi South 8.1 mph - N/A   Overcast
4:53 AM 25.0 °F 19.3 °F 21.0 °F 85% 29.51 in 6.0 mi South 4.6 mph - 0.00 in Snow Light Snow
5:50 AM 24.8 °F 20.5 °F 21.2 °F 86% 29.45 in 7.0 mi SW 3.5 mph - N/A   Overcast
5:53 AM 25.0 °F 20.7 °F 21.9 °F 88% 29.52 in 7.0 mi SSW 3.5 mph - N/A   Overcast
6:53 AM 26.1 °F 19.4 °F 23.0 °F 88% 29.51 in 6.0 mi West 5.8 mph - N/A   Overcast
7:53 AM 23.0 °F 9.2 °F 19.0 °F 85% 29.53 in 7.0 mi WNW 17.3 mph - N/A   Overcast
8:28 AM 21.2 °F 9.5 °F 17.6 °F 86% 29.48 in 10.0 mi West 11.5 mph - N/A   Overcast
8:53 AM 21.0 °F 6.2 °F 16.0 °F 81% 29.55 in 10.0 mi WNW 18.4 mph - N/A   Overcast
9:53 AM 19.0 °F 3.6 °F 14.0 °F 81% 29.58 in 10.0 mi WNW 18.4 mph - N/A   Overcast
10:51 AM 17.6 °F 1.3 °F 12.2 °F 79% 29.56 in 10.0 mi NW 19.6 mph 26.5 mph N/A   Overcast
10:53 AM 18.0 °F 0.9 °F 12.0 °F 78% 29.63 in 10.0 mi NW 21.9 mph 26.5 mph N/A   Overcast
11:35 AM 15.8 °F -1.1 °F 8.6 °F 73% 29.59 in 2.5 mi NW 19.6 mph 31.1 mph 0.00 in Snow Light Snow
11:53 AM 15.1 °F -2.9 °F 8.1 °F 74% 29.68 in 7.0 mi NW 21.9 mph 26.5 mph 0.00 in   Overcast
12:53 PM 12.0 °F -7.7 °F 5.0 °F 73% 29.71 in 4.0 mi NW 24.2 mph 29.9 mph 0.00 in   Haze
1:27 PM 12.2 °F -7.1 °F 3.2 °F 67% 29.63 in 6.0 mi NW 23.0 mph 31.1 mph N/A   Haze
1:53 PM 10.9 °F -9.2 °F 3.0 °F 70% 29.72 in 4.0 mi NW 24.2 mph 31.1 mph N/A   Haze
2:34 PM 10.4 °F -7.7 °F 3.2 °F 73% 29.65 in 2.5 mi NNW 18.4 mph 29.9 mph 0.00 in Snow Light Snow
2:49 PM 10.4 °F -10.3 °F 3.2 °F 73% 29.66 in 3.0 mi NNW 25.3 mph 32.2 mph 0.00 in Snow Light Snow
2:53 PM 10.0 °F -11.1 °F 1.9 °F 70% 29.74 in 2.5 mi NNW 26.5 mph 32.2 mph 0.00 in Snow Light Snow
3:19 PM 10.4 °F -8.2 °F 1.4 °F 67% 29.68 in 4.0 mi NNW 19.6 mph 29.9 mph 0.00 in Snow Light Snow
3:53 PM 8.1 °F -11.2 °F -0.0 °F 70% 29.79 in 8.0 mi NNW 19.6 mph 27.6 mph 0.00 in   Scattered Clouds
4:53 PM 6.1 °F -14.3 °F -2.0 °F 69% 29.83 in 9.0 mi NNW 20.7 mph 28.8 mph N/A   Clear
5:53 PM 5.0 °F -14.7 °F -2.9 °F 70% 29.86 in 6.0 mi NW 18.4 mph 27.6 mph 0.00 in Snow Light Snow
6:53 PM 3.0 °F -17.3 °F -4.0 °F 73% 29.90 in 9.0 mi NW 18.4 mph 28.8 mph 0.00 in   Overcast
7:53 PM 1.9 °F -16.9 °F -4.0 °F 76% 29.92 in 8.0 mi NW 15.0 mph 24.2 mph N/A   Overcast
8:53 PM 1.0 °F -18.0 °F -5.1 °F 75% 29.93 in 7.0 mi NNW 15.0 mph - N/A   Overcast
9:19 PM 1.4 °F -18.8 °F -5.8 °F 72% 29.84 in 10.0 mi NNW 17.3 mph - N/A   Overcast
9:53 PM -0.0 °F -20.1 °F -6.0 °F 76% 29.96 in 10.0 mi NNW 16.1 mph 23.0 mph N/A   Overcast
10:53 PM -0.0 °F -20.1 °F -6.0 °F 76% 29.99 in 9.0 mi NNW 16.1 mph - N/A   Overcast
11:53 PM -0.0 °F -18.7 °F -6.0 °F 76% 30.01 in 10.0 mi NNW 13.8 mph 21.9 mph 0.00 in   Overcast